This is the latest recevied weather packets stored in our database for station/object SP1BMW-13. If no packets are shown the sender has not sent any weather packets the latest 10 day(s).
| Time | Temp. | Humidity | Pressure | Rain* | Wind** | Luminosity | Snow |
|---|---|---|---|---|---|---|---|
| 1778093453 | 7.78° C | 88% | 1008 hPa | 0 mm | 0.89 m/s, 30° | 0 W/m² | - |
| 1778093392 | 7.78° C | 88% | 1007.6 hPa | 0 mm | 1.34 m/s, 44° | 1 W/m² | - |
| 1778093333 | 7.78° C | 88% | 1007.8 hPa | 0 mm | 1.79 m/s, 35° | 1 W/m² | - |
| 1778093272 | 7.78° C | 88% | 1007.8 hPa | 0 mm | 0 m/s | 1 W/m² | - |
| 1778093214 | 7.78° C | 88% | 1007.9 hPa | 0 mm | 0 m/s | 1 W/m² | - |
| 1778093152 | 7.78° C | 88% | 1007.9 hPa | 0 mm | 0.45 m/s, 51° | 1 W/m² | - |
| 1778093093 | 7.78° C | 88% | 1008 hPa | 0 mm | 1.34 m/s, 332° | 1 W/m² | - |
| 1778093032 | 7.78° C | 88% | 1008.1 hPa | 0 mm | 0.45 m/s, 344° | 1 W/m² | - |
| 1778092972 | 7.78° C | 88% | 1007.9 hPa | 0 mm | 0.89 m/s, 4° | 1 W/m² | - |
| 1778092913 | 8.33° C | 88% | 1007.8 hPa | 0 mm | 0.89 m/s, 343° | 1 W/m² | - |
| 1778092853 | 8.33° C | 88% | 1007.9 hPa | 0 mm | 1.34 m/s, 319° | 1 W/m² | - |
| 1778092792 | 8.33° C | 88% | 1007.9 hPa | 0 mm | 1.79 m/s, 49° | 1 W/m² | - |
| 1778092733 | 8.33° C | 88% | 1007.9 hPa | 0 mm | 1.34 m/s, 342° | 1 W/m² | - |
| 1778092672 | 8.33° C | 88% | 1008 hPa | 0 mm | 0.89 m/s, 14° | 1 W/m² | - |
| 1778092612 | 8.33° C | 88% | 1008 hPa | 0 mm | 1.79 m/s, 15° | 1 W/m² | - |
| 1778092553 | 8.33° C | 88% | 1007.9 hPa | 0 mm | 1.34 m/s, 292° | 2 W/m² | - |
| 1778092492 | 8.33° C | 88% | 1007.9 hPa | 0 mm | 0 m/s | 2 W/m² | - |
| 1778092433 | 8.33° C | 88% | 1007.8 hPa | 0 mm | 0.89 m/s, 292° | 2 W/m² | - |
| 1778092373 | 8.33° C | 88% | 1007.8 hPa | 0 mm | 0.89 m/s, 324° | 2 W/m² | - |
| 1778092312 | 8.33° C | 88% | 1007.9 hPa | 0 mm | 0.89 m/s, 31° | 3 W/m² | - |
| 1778092252 | 8.33° C | 88% | 1008 hPa | 0 mm | 0.89 m/s, 38° | 3 W/m² | - |
| 1778092192 | 8.33° C | 88% | 1007.9 hPa | 0 mm | 0.89 m/s, 55° | 3 W/m² | - |
| 1778092132 | 8.33° C | 88% | 1007.7 hPa | 0 mm | 0.89 m/s, 38° | 3 W/m² | - |
| 1778092072 | 8.33° C | 88% | 1007.7 hPa | 0 mm | 1.79 m/s, 22° | 3 W/m² | - |
| 1778092013 | 8.33° C | 88% | 1007.7 hPa | 0 mm | 0.89 m/s, 313° | 3 W/m² | - |
* Rain latest hour (hover to see other rain measurements)
** Current wind speed in m/s (hover to see current wind gust speed)